Regional Weather Roundup
Issued by NWS Cleveland, OH

Current Version |  Previous Version |  Text Only |  Print | Product List |  Glossary On
Versions: 1 2 3 4 5 6 7 8 9 10 11 12 13 14 15 16 17 18 19 20 21 22 23 24 25 26 27 28 29 30 31 32 33 34 35 36 37 38 39 40 41 42 43 44 45 46 47 48 49 50
915 ASUS41 KCLE 221012 RWRCLE OHIO REGIONAL WEATHER ROUNDUP NATIONAL WEATHER SERVICE WILMINGTON, OH 600 AM EDT SAT JUN 22 2024 NOTE: "FAIR" INDICATES FEW OR NO CLOUDS BELOW 12,000 FEET WITH NO SIGNIFICANT WEATHER AND/OR OBSTRUCTIONS TO VISIBILITY. OHZ001>008-015>018-024>027-034-035-043-044-221100- NORTHWEST OHIO CITY SKY/WX TMP DP RH WIND PRES REMARKS DEFIANCE FAIR 70 67 90 CALM 30.07S FINDLAY FAIR 75 64 68 SW6 30.07S TOLEDO EXPRESS FAIR 71 70 96 CALM 30.06S TOLEDO EXEC FAIR 76 70 82 CALM 30.07S LIMA FAIR 74 67 78 S3 30.10S $$ OHZ009>014-019>023-028>033-038-089-221100- NORTHEAST OHIO CITY SKY/WX TMP DP RH WIND PRES REMARKS CLE-HOPKINS FAIR 74 69 85 S6 30.05S CLE-LAKEFRONT FAIR 79 70 74 S6 30.05R CUY CO. ARPT FAIR 71 69 95 CALM 30.08F LORAIN-ELYRIA FAIR 72 69 90 S3 30.07S FOG ASHTABULA FAIR 73 69 87 SE3 30.08S AKRON-CANTON FAIR 73 68 84 S6 30.09S WOOSTER FAIR 72 68 87 CALM 30.10S FOG MANSFIELD FAIR 71 63 75 SW5 30.11R YOUNGSTOWN FAIR 66 65 96 E6 30.10S $$ OHZ042-051>053-060>062-070>072-077>081-221100- SOUTHWEST OHIO CITY SKY/WX TMP DP RH WIND PRES REMARKS CINC-COVINGTON FAIR 73 69 87 CALM 30.12S CINC-LUNKEN FAIR 70 69 97 CALM 30.12R FOG HAMILTON FAIR 70 68 93 CALM 30.13R FOG DAYTON FAIR 76 67 73 CALM 30.12S WRIGHT-PAT AFB FAIR 72 66 80 CALM 30.11S DAYTON GENERAL FAIR 73 64 73 CALM 30.12R WILMINGTON FAIR 70 67 90 CALM 30.13S FOG $$ OHZ036-037-039>041-045>050-054>059-063>069-073>076-082>088-221100- CENTRAL AND SOUTHEAST OHIO CITY SKY/WX TMP DP RH WIND PRES REMARKS COLUMBUS FAIR 74 69 85 SE3 30.10S OSU AIRPORT FAIR 75 65 70 W5 30.10S BOLTON FIELD FAIR 73 65 74 W6 30.11S RICKENBACK AFB FAIR 73 69 87 S3 30.10S NEWARK FAIR 69 67 93 CALM 30.10S FOG MARION FAIR 75 65 70 W6 30.10S LANCASTER FAIR 69 69 100 CALM 30.12S ZANESVILLE MOCLDY 73 70 90 CALM 30.11R NEW PHILLY FOG 70 70 100 CALM 30.10S VSB 1 $$